DateTimeUTC,F1_A11,F1_S11,BsB_S11,BsG_S11,BsR_S11,BbsB_S11,BbsG_S11,BbsR_S11,BaB_A11,BaG_A11,BaR_A11,Tu_S11,T_S11,Uu_S11,U_S11,P_S11,T1_A11
2021-05-05T07:00:00Z,00000200,21000000,,,,,,,0000.29,-000.47,-000.54,16.0,22.9,,00.0,0675.8,30.9
2021-05-05T07:01:00Z,00000200,21000000,,,,,,,-000.43,0000.14,0000.09,16.0,23.0,,00.0,0675.8,30.9
2021-05-05T07:02:00Z,00000200,21000000,,,,,,,-000.14,-000.19,0000.06,16.0,23.0,,00.0,0675.8,30.9
2021-05-05T07:03:00Z,00000200,61000000,,,,,,,0001.60,0001.37,0000.81,16.0,23.0,,00.0,0675.8,30.9
2021-05-05T07:04:00Z,00000200,41000000,0006.87,0004.19,0002.52,0001.27,0000.85,0000.64,0002.06,0001.49,0001.30,16.0,22.8,,00.0,0676.8,30.8
2021-05-05T07:05:00Z,00000200,01000000,0007.37,0004.28,0002.53,0001.17,0000.65,0000.47,0001.47,0001.17,0000.95,15.9,22.7,,00.0,0676.9,30.8
2021-05-05T07:06:00Z,00000200,01000000,0006.48,0004.35,0002.40,0000.81,0000.76,0000.50,0001.71,0001.98,0000.83,15.9,22.6,,00.0,0676.8,30.8
2021-05-05T07:07:00Z,00000200,01000000,0007.28,0004.48,0002.87,0000.62,0000.51,0000.80,0001.80,0001.26,0001.34,15.8,22.6,,00.0,0676.8,30.8
2021-05-05T07:08:00Z,00000200,01000000,0006.40,0004.44,0002.51,0000.92,0000.72,0000.50,0002.12,0001.74,0001.35,15.8,22.6,,00.0,0676.8,30.8
2021-05-05T07:09:00Z,00000200,01000000,0006.91,0004.77,0002.85,0000.24,0000.96,0000.57,0001.82,0001.68,0000.86,15.8,22.6,,00.0,0676.8,30.8
2021-05-05T07:10:00Z,00000200,01000000,0007.27,0004.32,0002.63,0000.31,0000.60,0000.51,0001.94,0001.83,0001.56,15.9,22.6,,00.0,0676.8,30.8
2021-05-05T07:11:00Z,00000200,01000000,0006.04,0004.49,0002.58,0001.18,0000.48,0000.48,0002.01,0001.68,0001.55,16.0,22.6,,00.0,0676.8,30.8
2021-05-05T07:12:00Z,00000200,01000000,0006.76,0004.52,0002.71,0000.76,0000.77,0000.52,0001.56,0001.83,0001.33,16.0,22.7,,00.0,0676.8,30.9
2021-05-05T07:13:00Z,00000200,01000000,0007.53,0004.49,0002.55,0000.76,0000.54,0000.67,0001.91,0001.50,0001.15,16.1,22.7,,00.0,0676.8,30.9
2021-05-05T07:14:00Z,00000200,01000000,0006.72,0004.44,0002.64,0000.77,0000.66,0000.48,0001.61,0001.49,0000.79,16.1,22.7,,00.0,0676.8,30.9
2021-05-05T07:15:00Z,00000200,01000000,0006.54,0004.12,0002.73,0000.78,0000.53,0000.64,0001.89,0002.20,0001.35,16.2,22.7,,00.0,0676.8,30.9
2021-05-05T07:16:00Z,00000200,01000000,0006.60,0004.79,0002.67,0000.56,0000.54,0000.77,0001.70,0001.22,0001.23,16.1,22.7,,00.0,0676.8,30.9
2021-05-05T07:17:00Z,00000200,01000000,0006.29,0004.16,0002.25,0000.68,0000.75,0000.42,0001.93,0001.68,0000.97,16.1,22.7,,00.0,0676.8,30.9
2021-05-05T07:18:00Z,00000200,01000000,0007.13,0004.29,0002.96,0000.59,0000.59,0000.72,0001.54,0001.25,0001.22,16.0,22.6,,00.0,0676.8,30.9
2021-05-05T07:19:00Z,00000200,01000000,0006.29,0004.46,0002.97,0000.59,0000.55,0000.57,0002.01,0001.87,0001.01,15.9,22.6,,00.0,0676.8,30.8
2021-05-05T07:20:00Z,00000200,01000000,0007.09,0004.85,0002.63,0001.10,0000.72,0000.80,0001.56,0001.74,0001.41,15.8,22.6,,00.0,0676.8,30.8
2021-05-05T07:21:00Z,00000200,01000000,0007.67,0004.77,0002.86,0000.95,0000.95,0000.60,0001.96,0001.81,0001.39,15.7,22.5,,00.0,0676.8,30.8
2021-05-05T07:22:00Z,00000200,01000000,0007.13,0005.05,0002.85,0001.17,0000.87,0000.53,0002.33,0001.24,0001.05,15.7,22.5,,00.0,0676.8,30.8
2021-05-05T07:23:00Z,00000200,01000000,0007.49,0004.84,0002.95,0001.16,0001.02,0000.46,0002.21,0002.28,0001.60,15.7,22.5,,00.0,0676.8,30.8
2021-05-05T07:24:00Z,00000200,01000000,0007.52,0005.12,0003.08,0001.12,0000.94,0000.61,0002.09,0001.75,0001.23,15.7,22.5,,00.0,0676.8,30.8
2021-05-05T07:25:00Z,00000200,01000000,0007.70,0004.99,0002.89,0001.05,0000.78,0000.56,0001.76,0001.80,0001.25,15.8,22.5,,00.0,0676.7,30.8
2021-05-05T07:26:00Z,00000200,01000000,0007.81,0004.86,0002.94,0001.07,0000.71,0000.84,0002.19,0002.13,0001.94,15.9,22.5,,00.0,0676.7,30.8
2021-05-05T07:27:00Z,00000200,01000000,0007.58,0005.16,0002.66,0000.58,0000.79,0000.87,0002.33,0001.74,0001.14,16.0,22.6,,00.0,0676.7,30.9
2021-05-05T07:28:00Z,00000200,01000000,0007.25,0005.01,0002.76,0000.76,0000.76,0000.70,0002.00,0002.02,0001.51,16.0,22.6,,00.0,0676.8,30.9
2021-05-05T07:29:00Z,00000200,01000000,0006.90,0004.76,0002.77,0000.57,0000.83,0000.54,0001.46,0001.03,0000.74,16.1,22.6,,00.0,0676.8,30.9
2021-05-05T07:30:00Z,00000200,01000000,0006.83,0004.60,0002.62,0000.95,0000.59,0000.54,0001.70,0001.73,0001.17,16.1,22.6,,00.0,0676.8,30.8
2021-05-05T07:31:00Z,00000200,01000000,0006.68,0004.24,0002.56,0001.12,0000.63,0000.53,0001.83,0001.70,0001.45,16.0,22.6,,00.0,0676.7,30.9
2021-05-05T07:32:00Z,00000200,01000000,0007.23,0004.46,0002.75,0000.90,0000.52,0000.61,0001.33,0001.46,0000.76,15.9,22.6,,00.0,0676.8,30.9
2021-05-05T07:33:00Z,00000200,01000000,0006.40,0004.11,0002.35,0000.43,0000.58,0000.42,0001.82,0001.32,0001.02,15.9,22.6,,00.0,0676.8,30.8
2021-05-05T07:34:00Z,00000200,01000000,0006.97,0003.74,0002.53,0000.94,0000.43,0000.31,0001.44,0001.71,0001.18,15.8,22.5,,00.0,0676.8,30.8
2021-05-05T07:35:00Z,00000200,01000000,0005.69,0004.17,0002.49,0000.21,0000.58,0000.65,0001.35,0000.89,0000.94,15.7,22.5,,00.0,0676.8,30.8
2021-05-05T07:36:00Z,00000200,01000000,0006.17,0003.54,0002.39,0000.59,0000.39,0000.36,0001.58,0001.50,0000.56,15.6,22.4,,00.0,0676.8,30.8
2021-05-05T07:37:00Z,00000200,01000000,0005.72,0004.18,0002.15,0000.65,0000.56,0000.71,0001.47,0000.81,0001.08,15.6,22.4,,00.0,0676.8,30.8
2021-05-05T07:38:00Z,00000200,01000000,0005.55,0003.74,0002.55,0000.96,0000.49,0000.73,0001.10,0001.03,0000.78,15.6,22.4,,00.0,0676.8,30.8
2021-05-05T07:39:00Z,00000200,01000000,0005.69,0003.63,0002.57,0000.69,0000.40,0000.28,0001.62,0001.44,0000.98,15.6,22.4,,00.0,0676.8,30.8
2021-05-05T07:40:00Z,00000200,01000000,0005.05,0003.21,0002.07,0000.85,0000.49,0000.45,0001.52,0001.73,0001.35,15.7,22.4,,00.0,0676.7,30.8
2021-05-05T07:41:00Z,00000200,01000000,0004.65,0003.42,0002.07,0000.87,0000.35,0000.44,0001.13,0000.96,0000.57,15.8,22.4,,00.0,0676.7,30.8
2021-05-05T07:42:00Z,00000200,01000000,0004.54,0003.40,0002.15,0000.46,0000.51,0000.28,0001.25,0000.95,0001.18,15.9,22.5,,00.0,0676.7,30.9
2021-05-05T07:43:00Z,00000200,01000000,0004.92,0002.99,0002.20,0000.94,0000.65,0000.18,0001.27,0001.51,0000.79,16.0,22.5,,00.0,0676.7,30.9
2021-05-05T07:44:00Z,00000200,01000000,0005.06,0003.17,0001.79,0000.17,0000.59,0000.38,0001.16,0000.32,0000.70,16.0,22.6,,00.0,0676.7,30.9
2021-05-05T07:45:00Z,00000200,01000000,0004.12,0003.01,0002.04,0000.26,0000.45,0000.41,0001.18,0001.82,0000.76,16.0,22.5,,00.0,0676.7,30.9
2021-05-05T07:46:00Z,00000200,01000000,0003.97,0003.24,0001.91,0001.31,0000.57,0000.20,0001.28,0000.95,0001.02,15.9,22.5,,00.0,0676.7,30.9
2021-05-05T07:47:00Z,00000200,01000000,0003.67,0002.96,0002.08,0000.47,0000.53,0000.28,0001.13,0001.10,0000.57,15.8,22.5,,00.0,0676.7,30.8
2021-05-05T07:48:00Z,00000200,01000000,0004.92,0003.21,0001.84,0000.64,0000.63,0000.50,0000.89,0000.94,0000.71,15.7,22.5,,00.0,0676.8,30.8
2021-05-05T07:49:00Z,00000200,01000000,0004.70,0002.85,0002.27,0000.48,0000.49,0000.42,0001.44,0000.77,0001.00,15.7,22.4,,00.0,0676.8,30.8
2021-05-05T07:50:00Z,00000200,01000000,0004.31,0003.04,0001.83,0000.30,0000.25,0000.54,0001.47,0001.35,0000.75,15.6,22.4,,00.0,0676.8,30.8
2021-05-05T07:51:00Z,00000200,01000000,0004.49,0003.09,0002.08,0000.54,0000.26,0000.19,0000.99,0000.74,0000.60,15.5,22.4,,00.0,0676.8,30.8
2021-05-05T07:52:00Z,00000200,01000000,0004.89,0003.05,0001.84,0000.63,0000.59,0000.36,0000.93,0000.38,0000.43,15.5,22.3,,00.0,0676.8,30.8
2021-05-05T07:53:00Z,00000200,01000000,0004.94,0002.75,0002.06,0000.99,0000.14,0000.31,0001.18,0001.07,0000.63,15.4,22.3,,00.0,0676.7,30.8
2021-05-05T07:54:00Z,00000200,01000000,0004.33,0002.93,0001.70,0000.54,0000.46,0000.54,0001.21,0001.36,0001.04,15.5,22.3,,00.0,0676.7,30.8
2021-05-05T07:55:00Z,00000200,01000000,0004.67,0002.78,0002.05,0000.63,0000.51,0000.20,0001.50,0001.26,0000.91,15.6,22.3,,00.0,0676.7,30.8
2021-05-05T07:56:00Z,00000200,01000000,0003.88,0002.89,0001.74,0000.25,0000.12,0000.40,0001.23,0001.52,0001.07,15.7,22.4,,00.0,0676.7,30.8
2021-05-05T07:57:00Z,00000200,41000000,,,,,,,0000.72,0000.17,0000.52,15.8,22.4,,00.0,0676.6,30.8
2021-05-05T07:58:00Z,00000200,61000000,,,,,,,-000.40,0000.04,-000.23,15.7,22.6,,00.0,0675.7,30.9
2021-05-05T07:59:00Z,00000200,21000000,,,,,,,-000.28,-000.45,-000.19,15.7,22.7,,00.0,0675.7,30.9
